STARLINK-34756, 64849

Orbit data source: Space-Track

STARLINK-34756, 64849 is a payload satellite owned by SpaceX/Seattle (US) in SSO that was launched on Sat, 19 Jul 2025 UTC via an FALCON 9 launch vehicle from the Air Force Western Test Range (AFWTR). Payload-class satellites include a variety of spacecraft equipped with specific instruments for various scientific and technological missions. These include communications satellites like Starlink; space stations such as the ISS; scientific satellites like the Hubble; Earth observation satellites from companies like Planet Labs, Umbra, and HawkEye 360; GPS; miniature CubeSats for education and research; and military/defense satellites.

Loading next visibility...
Identifier
64849, 2025-152H
Orbit
SSO
Country
Flag of USUS
Related business
Manufacturer
SpaceX/Seattle
Mission
Operational Commercial Communications
Bus & Motor
STARLINK V2MO, Unknown motor
Mass
575 kg wet, ~530 kg dry
Launch date (UTC)
2025-07-19 (11 months ago)
Launch vehicle
FALCON 9
Launch site
Air Force Western Test Range (AFWTR)
Object type
Payload
Rocket body
Debris
Shape & HBR
Box + 2 Pan, 17.7 m
Radar Cross Section
36.964 m², Large (>1 m²)

Expand to show TLE details & history
Last TLE update: 12 hours ago

TLE from 12 hours ago
0 STARLINK-34756
1 64849U 25152H   26171.34028774  .00003289  00000-0  23174-3 0  9990
2 64849  97.3391  25.6092 0002002  85.7169 274.4287 15.05660756 50863
Epoch: 2026-06-20T08:10Z
TLE epoch observation values (Epoch: 2026-06-20T08:10:00.860Z)
Latitude
-0.00006°
Longitude
-5.45069°
Altitude
552.444 km
Speed
7.586 km/s
True Right ascension
01h 42m 26s
True Declination
0° 00' 00"
Sunlit
Object was in daylight at epoch
Visualization orbit readout
Latitude
Unknown
Longitude
Unknown
Altitude
Unknown
Speed
Unknown
Apparent Right ascension
Unknown
Apparent Declination
Unknown
Sunlit
N/A
Visualization observer readout
Local Sidereal Time
07:21:23
Azimuth
Unknown
Elevation
Unknown
Doppler factor
Unknown
Orbital elements
Apogee altitude
547.847 km
Perigee altitude
545.074 km
Semi-major axis
6,924.597 km
Eccentricity
0.0002
Inclination
97.3391°
RAAN
25.6092°
Arg. of periapsis
85.7169°
True anomaly
274.40583°
Mean anomaly
274.4287°
Eccentric anomaly
274.41726°
Mean motion
3.76662 °/min
Orbital period
95.58 mins
BSTAR
0.00023174
Loading maneuver chart data...
Computing Atmospheric mass density...
Loading historical data...
Loading historical data...
Loading historical data...
Loading historical data...
Loading historical data...
Loading historical data...
Loading historical data...

Documentation

Showing up to 5 results
|